Content
SEND FEEDBACK

Daily
Averages
Monthly
Summary
United Kingdom

WINCHESTER, ENGLAND


Home > Europe > United Kingdom > England
Elevation: 297 feet     Latitude: 51 09N     Longitude: 001 34W

WEATHER
 
SELECT A DAY
Number of Records: 58,097;   Date Range: 10/20/98 - 7/9/14
 
SHARE

PRINT THIS DATA

[ ← Previous Day ]
WEATHER ALMANAC - JANUARY 19, 2013
[ Next Day → ]
[ °C ]   °F
Weather ElementAverageHighLow
Temperature30.9 °F33 °F (2:50 pm)30 °F (2:50 am)
Dewpoint27.6 °F30.2 °F (10:50 am)24 °F (11:50 pm)
Humidity86.4 %93 % (1:50 am)70 % (8:50 pm)
Barometer29.43 in29.51 in (8:50 pm)29.36 in (1:50 am)
Wind Speed11.5 mph16.1 mph (5:50 pm)
Weather ElementAverage
Visibility5.1 mi
Wind DirectionNE (44 °)

Weather ElementTotal
Precipitation---
Heating Degree Days33.5 (Base 65)
Averaged from 30 records on January 19, 2013
WEATHER CONDITIONS BREAKOUT
WIND DIRECTION BREAKOUT
WEATHER BY HOUR - JANUARY 19, 2013
[ °C ]   °F
Local TimeTemperatureDewpointHumidityBarometerVisibilityWind DirectionWind SpeedGust SpeedPrecipitationEventsConditions
1:50 AM30.2 °F28.4 °F93 %29.36 inENE (70°)15.0 mphOvercast
2:50 AM30.0 °F28.0 °F91 %29.40 in3.0 miENE (60°)12.7 mphMostly Cloudy
2:50 AM30.2 °F28.4 °F93 %29.36 in2.8 miENE (60°)12.7 mphMostly Cloudy
3:50 AM30.2 °F28.4 °F93 %29.36 inNE (50°)11.5 mphOvercast
4:50 AM30.2 °F28.4 °F93 %29.39 in3.1 miNE (50°)10.4 mphOvercast
5:50 AM30.0 °F28.0 °F88 %29.40 in4.0 miNE (50°)9.2 mphOvercast
5:50 AM30.2 °F28.4 °F93 %29.39 in3.7 miNE (50°)9.2 mphOvercast
6:50 AM30.2 °F28.4 °F93 %29.36 in3.7 miNE (40°)10.4 mphOvercast
7:50 AM30.2 °F28.4 °F93 %29.42 in3.7 miNE (50°)8.1 mphOvercast
8:50 AM30.0 °F28.0 °F90 %29.44 in4.0 miNE (50°)8.1 mphOvercast
8:50 AM30.2 °F28.4 °F93 %29.42 in3.7 miNE (50°)8.1 mphOvercast
9:50 AM30.2 °F28.4 °F93 %29.42 in3.7 miNE (40°)12.7 mphOvercast
10:50 AM32.0 °F30.2 °F93 %29.42 in3.7 miNE (50°)10.4 mphOvercast
11:50 AM32.0 °F30.0 °F90 %29.43 in2.0 miNE (50°)8.1 mphOvercast
11:50 AM32.0 °F30.2 °F93 %29.42 inNE (50°)8.1 mphOvercast
12:50 PM32.0 °F30.2 °F93 %29.39 in3.7 miNE (50°)12.7 mphOvercast
1:50 PM32.0 °F30.2 °F93 %29.42 in5.0 miNE (50°)12.7 mphOvercast
2:50 PM33.0 °F30.0 °F83 %29.45 in5.0 miNE (50°)13.8 mphMostly Cloudy
3:50 PM32.0 °F28.4 °F87 %29.42 in5.6 miNE (40°)13.8 mphMostly Cloudy
4:50 PM32.0 °F26.6 °F80 %29.44 in6.2 miNE (40°)15.0 mphOvercast
5:50 PM31.0 °F26.0 °F72 %29.48 in11.0 miNE (40°)16.1 mphPartly Cloudy
5:50 PM32.0 °F24.8 °F75 %29.44 in6.2 miNE (40°)16.1 mphOvercast
6:50 PM32.0 °F26.6 °F80 %29.47 in6.2 miNNE (30°)11.5 mphOvercast
7:50 PM30.2 °F26.6 °F86 %29.47 in6.2 miNNE (30°)10.4 mphOvercast
8:50 PM31.0 °F25.0 °F70 %29.51 in9.0 miNNE (30°)12.7 mphOvercast
8:50 PM30.2 °F24.8 °F80 %29.47 in6.2 miNNE (30°)12.7 mphOvercast
9:50 PM30.2 °F24.8 °F80 %29.47 in6.2 miNNE (30°)11.5 mphMostly Cloudy
10:50 PM30.2 °F24.8 °F80 %29.47 in6.2 miNNE (30°)9.2 mphOvercast
11:50 PM30.0 °F24.0 °F70 %29.49 in7.0 miNNE (30°)11.5 mphOvercast
11:50 PM30.2 °F24.8 °F80 %29.44 in6.2 miNNE (30°)11.5 mphOvercast
Hourly data recorded from EGVP, located miles away from Winchester, England







STORIES FROM OUR PARTNERS